Messwerte Wahiawa / Oahu

Temperatur

Temperatur
°C
1623592800 4.00 4.00 20
1623596400 5.00 5.00 20
1623600000 6.00 6.00 19
1623603600 7.00 7.00 19
1623607200 8.00 8.00
1623610800 9.00 9.00 22
1623614400 10.00 10.00
1623618000 11.00 11.00 25
1623621600 12.00 12.00 26
1623625200 13.00 13.00 26
1623628800 14.00 14.00
1623632400 15.00 15.00 25
1623636000 16.00 16.00 25
1623639600 17.00 17.00 25
1623643200 18.00 18.00 24
1623646800 19.00 19.00 23
1623650400 20.00 20.00 22
1623654000 21.00 21.00 20
1623657600 22.00 22.00 20
1623661200 23.00 23.00 20
1623664800 0.00 0.00 20
1623668400 1.00 1.00 22
1623672000 2.00 2.00 22
1623675600 3.00 3.00 22

Aktuellste Messwerte

Wettercharakter
Wetter: bedeckt
Temperatur
22 °C
Feuchtigkeit
80 %
Wind
10 km/hWindrichtung: Ost
Luftdruck
1020 hPa
Messzeit: 14. Juni 2021, 4.00Datenquelle: METAR

Weitere Messstationen in der Nähe

Messstation Temperatur Entfernung
Honolulu 24 °C 18 km
Kalaeola / Oahu 23 °C 18 km
Kaneohe Bay / Oahu - 27 km
Molokai 20 °C 103 km
Lanai City 20 °C 136 km
Lihue 24 °C 145 km
Kahului 23 °C 178 km

Wind

Windrichtung Böen Mittelwind
° km/h km/h
1623592800 4.00 3.00 - 4.00 320° 5
1623596400 5.00 4.00 - 5.00 300° 5
1623600000 6.00 5.00 - 6.00 300° 10
1623603600 7.00 6.00 - 7.00 270° 5
1623607200 8.00 7.00 - 8.00
1623610800 9.00 8.00 - 9.00 20° 5
1623614400 10.00 9.00 - 10.00
1623618000 11.00 10.00 - 11.00 80° 15
1623621600 12.00 11.00 - 12.00 60° 30 20
1623625200 13.00 12.00 - 13.00 90° 25
1623628800 14.00 13.00 - 14.00
1623632400 15.00 14.00 - 15.00 60° 20
1623636000 16.00 15.00 - 16.00 80° 20
1623639600 17.00 16.00 - 17.00 60° 20
1623643200 18.00 17.00 - 18.00 80° 20
1623646800 19.00 18.00 - 19.00 50° 10
1623650400 20.00 19.00 - 20.00 360° 5
1623654000 21.00 20.00 - 21.00 290° 10
1623657600 22.00 21.00 - 22.00 300° 5
1623661200 23.00 22.00 - 23.00 310° 5
1623664800 0.00 23.00 - 0.00 320° 5
1623668400 1.00 0.00 - 1.00 40° 10
1623672000 2.00 1.00 - 2.00 50° 10
1623675600 3.00 2.00 - 3.00 50° 15

Ihre Wetterstation

Fehlt Ihre Wetterstation auf unserem Portal?

Schreiben Sie an network@meteonews.ch

Klima

Wann ist es am wärmsten? Wann regnet es am wenigsten? Unsere Klimadaten geben Auskunft.